START_TIME,STEP,MOV.,AL01,t_acc.,AL02,t_acc.,E37,t_acc.,H21,t_acc.
1979-08-02 23:07:21.130 ,0,0,1.,24.0,0.,24.0,1.,24.0,0.,24.0
1979-08-02 23:07:45.130 ,0,0,1.,24.0,1.,24.0,4.,24.0,0.,24.0
1979-08-02 23:08:09.130 ,4,1,0.,24.0,0.,24.0,1.,24.0,0.,24.0
1979-08-02 23:08:33.130 ,4,0,0.,24.0,0.,24.0,1.,24.0,0.,24.0
1979-08-02 23:08:57.130 ,3,1,0.,24.0,0.,24.0,1.,24.0,0.,24.0
1979-08-02 23:09:21.130 ,3,0,0.,24.0,0.,24.0,3.,24.0,0.,24.0
1979-08-02 23:09:45.130 ,2,1,0.,24.0,0.,24.0,0.,24.0,0.,24.0
1979-08-02 23:10:09.130 ,2,0,0.,24.0,0.,24.0,0.,24.0,0.,24.0
1979-08-02 23:10:33.130 ,1,1,0.,24.0,0.,24.0,1.,24.0,0.,24.0
1979-08-02 23:10:57.130 ,1,0,0.,24.0,0.,24.0,1.,24.0,0.,24.0
1979-08-02 23:11:21.130 ,0,1,0.,24.0,0.,24.0,1.,24.0,0.,24.0
1979-08-02 23:11:45.130 ,0,0,0.,24.0,0.,24.0,0.,24.0,0.,24.0
1979-08-02 23:12:09.130 ,0,1,2.,24.0,0.,24.0,3.,24.0,0.,24.0
1979-08-02 23:12:33.130 ,0,0,0.,24.0,0.,24.0,1.,24.0,0.,24.0
1979-08-02 23:12:57.130 ,1,1,0.,24.0,0.,24.0,2.,24.0,0.,24.0
1979-08-02 23:13:21.130 ,1,0,0.,24.0,0.,24.0,3.,24.0,0.,24.0
1979-08-02 23:13:45.130 ,2,1,0.,24.0,0.,24.0,1.,24.0,0.,24.0
1979-08-02 23:14:09.130 ,2,0,0.,24.0,0.,24.0,0.,24.0,0.,24.0
1979-08-02 23:14:33.130 ,3,1,0.,24.0,0.,24.0,2.,24.0,0.,24.0
1979-08-02 23:14:57.130 ,3,0,0.,24.0,0.,24.0,1.,24.0,0.,24.0
1979-08-02 23:15:21.130 ,4,1,0.,24.0,0.,24.0,0.,24.0,0.,24.0
1979-08-02 23:15:45.130 ,4,0,0.,24.0,0.,24.0,1.,24.0,0.,24.0
1979-08-02 23:16:09.130 ,5,1,0.,24.0,0.,24.0,4.,24.0,0.,24.0
1979-08-02 23:16:33.130 ,5,0,0.,24.0,0.,24.0,0.,24.0,0.,24.0
1979-08-02 23:16:57.130 ,6,1,0.,24.0,0.,24.0,3.,24.0,0.,24.0
1979-08-02 23:17:21.130 ,6,0,0.,24.0,0.,24.0,1.,24.0,0.,24.0
1979-08-02 23:17:45.130 ,7,1,15.,24.0,1.,24.0,2.,24.0,0.,24.0
1979-08-02 23:18:09.130 ,7,0,29.,24.0,0.,24.0,1.,24.0,0.,24.0
1979-08-02 23:18:33.130 ,7,1,33.,24.0,0.,24.0,0.,24.0,0.,24.0
1979-08-02 23:18:57.130 ,7,0,31.,24.0,0.,24.0,1.,24.0,0.,24.0
1979-08-02 23:19:21.130 ,6,1,26.,24.0,0.,24.0,3.,24.0,0.,24.0
1979-08-02 23:19:45.130 ,6,0,0.,24.0,0.,24.0,1.,24.0,0.,24.0
1979-08-02 23:20:09.130 ,5,1,0.,24.0,0.,24.0,1.,24.0,0.,24.0
1979-08-02 23:20:33.130 ,5,0,0.,24.0,0.,24.0,1.,24.0,0.,24.0
1979-08-02 23:20:57.130 ,4,1,0.,24.0,0.,24.0,0.,24.0,0.,24.0
1979-08-02 23:21:21.130 ,4,0,0.,24.0,0.,24.0,0.,24.0,0.,24.0
1979-08-02 23:21:45.130 ,3,1,0.,24.0,0.,24.0,0.,24.0,0.,24.0
1979-08-02 23:22:09.130 ,3,0,0.,24.0,0.,24.0,1.,24.0,0.,24.0
1979-08-02 23:22:33.130 ,2,1,0.,24.0,0.,24.0,4.,24.0,0.,24.0
1979-08-02 23:22:57.130 ,2,0,0.,24.0,0.,24.0,1.,24.0,0.,24.0
1979-08-02 23:23:21.130 ,1,1,1.,24.0,0.,24.0,1.,24.0,0.,24.0
1979-08-02 23:23:45.130 ,1,0,0.,24.0,0.,24.0,1.,24.0,0.,24.0
1979-08-02 23:24:09.130 ,0,1,1.,24.0,0.,24.0,1.,24.0,0.,24.0
1979-08-02 23:24:33.130 ,0,0,0.,24.0,0.,24.0,2.,24.0,0.,24.0
1979-08-02 23:24:57.130 ,0,1,0.,24.0,0.,24.0,3.,24.0,0.,24.0
1979-08-02 23:25:21.130 ,0,0,0.,24.0,0.,24.0,2.,24.0,0.,24.0
1979-08-02 23:25:45.130 ,1,1,0.,24.0,0.,24.0,0.,24.0,0.,24.0
1979-08-02 23:26:09.130 ,1,0,0.,24.0,0.,24.0,1.,24.0,0.,24.0
1979-08-02 23:26:33.130 ,2,1,0.,24.0,0.,24.0,1.,24.0,0.,24.0
1979-08-02 23:26:57.130 ,2,0,0.,24.0,0.,24.0,0.,24.0,0.,24.0
1979-08-02 23:27:21.130 ,3,1,0.,24.0,0.,24.0,1.,24.0,0.,24.0
1979-08-02 23:27:45.130 ,3,0,0.,24.0,0.,24.0,3.,24.0,0.,24.0
1979-08-02 23:28:09.130 ,4,1,0.,24.0,0.,24.0,0.,24.0,0.,24.0
1979-08-02 23:28:33.130 ,4,0,0.,24.0,1.,24.0,1.,24.0,0.,24.0
1979-08-02 23:28:57.130 ,5,1,1.,24.0,0.,24.0,1.,24.0,0.,24.0
1979-08-02 23:29:21.130 ,5,0,0.,24.0,0.,24.0,0.,24.0,0.,24.0
1979-08-02 23:29:45.130 ,6,1,0.,24.0,0.,24.0,2.,24.0,0.,24.0
1979-08-02 23:30:09.130 ,6,0,0.,24.0,0.,24.0,1.,24.0,0.,24.0
1979-08-02 23:30:33.130 ,7,0,8.,24.0,0.,24.0,1.,24.0,0.,24.0
1979-08-02 23:30:57.130 ,7,0,32.,24.0,0.,24.0,0.,24.0,0.,24.0
1979-08-02 23:31:21.130 ,5,1,16.,24.0,1.,24.0,1.,24.0,0.,24.0
1979-08-02 23:31:45.130 ,1,1,0.,24.0,0.,24.0,0.,24.0,0.,24.0
1979-08-02 23:32:09.130 ,2,1,0.,24.0,1.,24.0,1.,24.0,0.,24.0
1979-08-02 23:32:33.130 ,6,1,0.,24.0,0.,24.0,1.,24.0,0.,24.0
1979-08-02 23:32:57.130 ,5,1,15.,24.0,0.,24.0,1.,24.0,0.,24.0
1979-08-02 23:33:21.130 ,1,1,0.,24.0,0.,24.0,1.,24.0,0.,24.0
1979-08-02 23:33:45.130 ,2,1,0.,24.0,0.,24.0,3.,24.0,0.,24.0
1979-08-02 23:34:09.130 ,6,1,0.,24.0,0.,24.0,0.,24.0,0.,24.0
1979-08-02 23:34:33.130 ,5,1,12.,24.0,1.,24.0,1.,24.0,0.,24.0
1979-08-02 23:34:57.130 ,1,1,0.,24.0,0.,24.0,0.,24.0,0.,24.0
1979-08-02 23:35:21.130 ,2,1,0.,24.0,0.,24.0,0.,24.0,0.,24.0
1979-08-02 23:35:45.130 ,6,1,0.,24.0,0.,24.0,0.,24.0,0.,24.0
1979-08-02 23:36:09.130 ,5,1,20.,24.0,0.,24.0,3.,24.0,0.,24.0
1979-08-02 23:36:33.130 ,1,1,0.,24.0,0.,24.0,1.,24.0,0.,24.0
1979-08-02 23:36:57.130 ,2,1,0.,24.0,0.,24.0,1.,24.0,0.,24.0
1979-08-02 23:37:21.130 ,6,1,0.,24.0,0.,24.0,0.,24.0,0.,24.0
1979-08-02 23:37:45.130 ,5,1,23.,24.0,0.,24.0,2.,24.0,0.,24.0
1979-08-02 23:38:09.130 ,1,1,0.,24.0,0.,24.0,0.,24.0,0.,24.0
1979-08-02 23:38:33.130 ,2,1,0.,24.0,0.,24.0,2.,24.0,0.,24.0
1979-08-02 23:38:57.130 ,6,1,0.,24.0,0.,24.0,0.,24.0,0.,24.0
1979-08-02 23:39:21.130 ,5,1,18.,24.0,0.,24.0,1.,24.0,0.,24.0
1979-08-02 23:39:45.130 ,1,1,1.,24.0,0.,24.0,2.,24.0,0.,24.0
1979-08-02 23:40:09.130 ,2,1,1.,24.0,0.,24.0,0.,24.0,0.,24.0
1979-08-02 23:40:33.130 ,6,1,0.,24.0,0.,24.0,0.,24.0,0.,24.0
1979-08-02 23:40:57.130 ,5,1,9.,24.0,0.,24.0,2.,24.0,0.,24.0
1979-08-02 23:41:21.130 ,1,1,0.,24.0,0.,24.0,0.,24.0,0.,24.0
1979-08-02 23:41:45.130 ,0,0,0.,24.0,1.,24.0,3.,24.0,0.,24.0
1979-08-02 23:42:09.130 ,0,0,0.,24.0,0.,24.0,2.,24.0,0.,24.0
1979-08-02 23:42:33.130 ,5,1,16.,24.0,0.,24.0,3.,24.0,0.,24.0
1979-08-02 23:42:57.130 ,5,0,0.,24.0,0.,24.0,1.,24.0,0.,24.0
1979-08-02 23:43:21.130 ,4,1,0.,24.0,0.,24.0,1.,24.0,0.,24.0
1979-08-02 23:43:45.130 ,4,0,0.,24.0,0.,24.0,3.,24.0,0.,24.0
1979-08-02 23:44:09.130 ,3,1,0.,24.0,0.,24.0,2.,24.0,0.,24.0
1979-08-02 23:44:33.130 ,3,0,1.,24.0,0.,24.0,3.,24.0,0.,24.0
1979-08-02 23:44:57.130 ,2,1,0.,24.0,0.,24.0,1.,24.0,0.,24.0
1979-08-02 23:45:21.130 ,2,0,0.,24.0,0.,24.0,1.,24.0,0.,24.0
1979-08-02 23:45:45.130 ,1,1,0.,24.0,0.,24.0,0.,24.0,0.,24.0
1979-08-02 23:46:09.130 ,1,0,0.,24.0,0.,24.0,1.,24.0,0.,24.0
1979-08-02 23:46:33.130 ,0,1,0.,24.0,0.,24.0,1.,24.0,0.,24.0
1979-08-02 23:46:57.130 ,0,0,0.,24.0,0.,24.0,1.,24.0,0.,24.0
1979-08-02 23:47:21.130 ,0,1,1.,24.0,0.,24.0,2.,24.0,0.,24.0
1979-08-02 23:47:45.130 ,0,0,0.,24.0,0.,24.0,0.,24.0,0.,24.0
1979-08-02 23:48:09.130 ,1,1,0.,24.0,0.,24.0,2.,24.0,0.,24.0
1979-08-02 23:48:33.130 ,1,0,0.,24.0,0.,24.0,1.,24.0,0.,24.0
1979-08-02 23:48:57.130 ,2,1,0.,24.0,0.,24.0,1.,24.0,0.,24.0
1979-08-02 23:49:21.130 ,2,0,0.,24.0,0.,24.0,2.,24.0,0.,24.0
1979-08-02 23:49:45.130 ,3,1,0.,24.0,1.,24.0,3.,24.0,0.,24.0
1979-08-02 23:50:09.130 ,3,0,0.,24.0,0.,24.0,1.,24.0,0.,24.0
1979-08-02 23:50:33.130 ,4,1,0.,24.0,0.,24.0,0.,24.0,0.,24.0
1979-08-02 23:50:57.130 ,4,0,1.,24.0,0.,24.0,2.,24.0,0.,24.0
1979-08-02 23:51:21.130 ,5,1,0.,24.0,0.,24.0,2.,24.0,0.,24.0
1979-08-02 23:51:45.130 ,5,0,1.,24.0,0.,24.0,2.,24.0,0.,24.0
1979-08-02 23:52:09.130 ,6,1,0.,24.0,0.,24.0,2.,24.0,0.,24.0
1979-08-02 23:52:33.130 ,6,0,0.,24.0,0.,24.0,1.,24.0,0.,24.0
1979-08-02 23:52:57.130 ,7,1,8.,24.0,0.,24.0,2.,24.0,0.,24.0
1979-08-02 23:53:21.130 ,7,0,31.,24.0,0.,24.0,1.,24.0,0.,24.0
1979-08-02 23:53:45.130 ,7,1,36.,24.0,0.,24.0,0.,24.0,0.,24.0
1979-08-02 23:54:09.130 ,7,0,26.,24.0,0.,24.0,1.,24.0,0.,24.0
1979-08-02 23:54:33.130 ,6,1,25.,24.0,0.,24.0,1.,24.0,0.,24.0
1979-08-02 23:54:57.130 ,6,0,0.,24.0,0.,24.0,0.,24.0,0.,24.0
1979-08-02 23:55:21.120 ,5,1,0.,24.0,0.,24.0,0.,24.0,0.,24.0
1979-08-02 23:55:45.120 ,5,0,0.,24.0,0.,24.0,1.,24.0,0.,24.0
1979-08-02 23:56:09.120 ,4,1,0.,24.0,0.,24.0,1.,24.0,0.,24.0
1979-08-02 23:56:33.120 ,4,0,0.,24.0,0.,24.0,1.,24.0,0.,24.0
1979-08-02 23:56:57.120 ,3,1,0.,24.0,0.,24.0,2.,24.0,0.,24.0
1979-08-02 23:57:21.120 ,3,0,0.,24.0,0.,24.0,1.,24.0,0.,24.0
1979-08-02 23:57:45.120 ,2,1,0.,24.0,0.,24.0,1.,24.0,0.,24.0
1979-08-02 23:58:09.120 ,2,0,0.,24.0,1.,24.0,1.,24.0,0.,24.0
1979-08-02 23:58:33.120 ,1,1,0.,24.0,0.,24.0,2.,24.0,0.,24.0
1979-08-02 23:58:57.120 ,1,0,0.,24.0,0.,24.0,1.,24.0,0.,24.0
1979-08-02 23:59:21.120 ,0,1,0.,24.0,1.,24.0,0.,24.0,0.,24.0
1979-08-02 23:59:45.120 ,0,0,0.,24.0,0.,24.0,2.,24.0,0.,24.0
1979-08-03 00:00:09.120 ,0,1,0.,24.0,0.,24.0,2.,24.0,0.,24.0
